Tracking 30922 objects as of 2-Jul-2025
HD Live streaming from Space Station
objects crossing your sky now

STARLINK-32472

Track STARLINK-32472 now!
10-day predictions
STARLINK-32472 is classified as:


NORAD ID: 61846
Int'l Code: 2024-202B
Perigee: 489.4 km
Apogee: 491.1 km
Inclination: 43.0 °
Period: 94.3 minutes
Semi major axis: 6861 km
RCS: Unknown
Launch date: November 7, 2024
Source: United States (US)
Launch site: AIR FORCE EASTERN TEST RANGE (AFETR)
Your satellite tracking list
COSMOS 1275 DEB
Track 1 satellite(s)




NASA's NSSDC Master Catalog

Two Line Element Set (TLE):
1 61846U 24202B   25182.75124591  .00000790  00000-0  38242-4 0  9996
2 61846  42.9981 204.4538 0001243 275.6158  84.4552 15.27565541 37661
Source of the keplerian elements: AFSPC